Total_Precipitation_Accumulation
1.53 1.78 2.09 2.50 2.88 3.18 3.50 3.82 3.97 3.96 4.02 4.33 4.40 4.17 3.97 3.82 3.47 3.19 3.17 3.10 2.93 2.84 2.68 2.43 2.44 2.57 2.44 2.33 2.40 2.44 2.42 2.31 2.14 2.09 1.94 1.82 1.68 1.55 1.32 1.15 1.12 1.11 1.11
1.29 1.50 1.82 2.13 2.53 2.86 3.26 3.60 3.84 4.01 3.91 3.82 3.98 4.01 3.95 3.83 3.66 3.42 3.34 3.18 3.03 2.94 2.89 2.79 2.66 2.72 2.67 2.55 2.47 2.48 2.56 2.48 2.42 2.39 2.32 2.16 2.04 1.71 1.42 1.27 1.18 1.17 1.20
1.12 1.28 1.56 1.83 2.17 2.53 2.87 3.22 3.54 3.82 4.03 3.99 4.14 4.22 4.21 4.02 3.77 3.44 3.24 3.11 3.05 3.01 2.90 2.87 2.85 2.84 2.85 2.75 2.63 2.53 2.53 2.54 2.45 2.40 2.54 2.29 1.97 1.73 1.56 1.34 1.24 1.22 1.23
1.04 1.15 1.35 1.61 1.86 2.23 2.52 2.80 3.26 3.59 3.90 4.07 4.03 4.01 4.05 3.85 3.50 3.34 3.36 3.25 3.03 2.95 2.95 2.85 2.81 2.85 2.82 2.76 2.79 2.77 2.62 2.61 2.60 2.51 2.33 2.11 1.83 1.77 1.69 1.53 1.42 1.33 1.26
1.02 1.08 1.22 1.45 1.63 1.96 2.28 2.48 2.85 3.21 3.49 3.57 3.57 3.69 3.77 3.77 3.60 3.51 3.46 3.40 3.12 2.87 2.81 2.82 2.76 2.73 2.75 2.74 2.77 2.80 2.81 2.71 2.62 2.53 2.42 2.30 2.03 1.83 1.80 1.70 1.63 1.63 1.49
1.00 1.10 1.21 1.37 1.47 1.65 1.98 2.26 2.44 2.73 2.97 3.12 3.19 3.31 3.30 3.42 3.47 3.41 3.44 3.46 3.28 2.98 2.80 2.74 2.66 2.62 2.65 2.62 2.68 2.75 2.82 2.76 2.61 2.48 2.30 2.24 2.13 1.95 1.90 1.76 1.61 1.70 1.64
1.13 1.23 1.26 1.39 1.49 1.61 1.71 1.99 2.20 2.36 2.57 2.81 2.96 2.98 3.05 3.11 3.17 3.15 3.19 3.33 3.35 3.06 2.84 2.76 2.71 2.62 2.53 2.56 2.72 2.83 2.81 2.78 2.65 2.56 2.44 2.29 2.11 2.01 2.05 2.03 1.81 1.71 1.63
1.28 1.35 1.39 1.55 1.63 1.71 1.74 1.86 1.99 2.02 2.17 2.40 2.61 2.69 2.85 2.87 2.80 2.76 2.77 2.85 2.98 3.02 2.91 2.85 2.81 2.74 2.64 2.57 2.60 2.65 2.68 2.70 2.62 2.50 2.42 2.34 2.18 2.14 2.14 2.17 2.25 2.16 1.85
1.34 1.44 1.51 1.59 1.59 1.60 1.72 1.83 1.94 1.90 1.88 1.98 2.15 2.30 2.45 2.56 2.51 2.47 2.42 2.47 2.58 2.71 2.84 2.87 2.82 2.71 2.65 2.61 2.58 2.52 2.44 2.49 2.50 2.42 2.33 2.23 2.07 2.08 2.10 2.09 2.22 2.44 2.27
1.26 1.38 1.40 1.41 1.49 1.55 1.64 1.78 1.88 1.91 1.84 1.83 1.91 2.03 2.11 2.18 2.21 2.27 2.26 2.18 2.23 2.27 2.43 2.61 2.69 2.65 2.59 2.55 2.56 2.48 2.34 2.33 2.25 2.19 2.20 2.14 2.01 1.92 1.95 2.04 2.10 2.19 2.29
1.09 1.17 1.18 1.23 1.31 1.38 1.53 1.71 1.83 1.86 1.77 1.85 1.90 1.87 1.93 2.07 2.08 2.04 2.08 2.13 2.09 2.04 2.11 2.22 2.36 2.42 2.44 2.44 2.44 2.36 2.26 2.22 2.15 2.07 2.02 1.97 1.93 1.96 1.91 1.92 2.00 2.09 2.17
0.99 1.01 1.01 1.00 1.02 1.11 1.24 1.39 1.53 1.60 1.62 1.69 1.83 1.80 1.78 1.95 2.03 1.97 1.92 1.96 1.99 1.88 1.86 1.90 1.97 2.06 2.11 2.11 2.14 2.13 2.08 2.04 2.01 1.95 1.92 1.88 1.85 1.85 1.84 1.89 1.92 1.95 1.99
0.80 0.79 0.80 0.86 0.87 0.91 1.03 1.18 1.29 1.39 1.51 1.58 1.66 1.67 1.68 1.77 1.84 1.87 1.83 1.82 1.88 1.87 1.77 1.73 1.77 1.78 1.81 1.84 1.83 1.84 1.85 1.82 1.79 1.80 1.80 1.78 1.84 1.89 1.82 1.79 1.77 1.74 1.75
0.65 0.62 0.63 0.66 0.71 0.77 0.90 1.03 1.11 1.19 1.35 1.45 1.48 1.49 1.53 1.55 1.58 1.63 1.65 1.64 1.64 1.70 1.74 1.63 1.56 1.59 1.63 1.68 1.75 1.75 1.74 1.74 1.74 1.74 1.73 1.71 1.73 1.74 1.75 1.79 1.76 1.72 1.74
0.52 0.49 0.52 0.55 0.59 0.63 0.70 0.84 0.99 1.08 1.23 1.39 1.43 1.43 1.43 1.43 1.42 1.45 1.42 1.42 1.47 1.54 1.61 1.60 1.53 1.47 1.51 1.58 1.65 1.72 1.74 1.72 1.74 1.73 1.70 1.71 1.81 1.85 1.82 1.80 1.78 1.83 1.95
0.49 0.44 0.44 0.45 0.49 0.55 0.61 0.71 0.88 1.00 1.10 1.24 1.33 1.37 1.35 1.36 1.38 1.36 1.34 1.30 1.35 1.43 1.53 1.60 1.61 1.56 1.56 1.83 1.84 1.75 1.74 1.75 1.73 1.69 1.61 1.60 1.68 1.68 1.75 1.78 1.75 1.86 2.02
0.49 0.46 0.46 0.46 0.46 0.50 0.59 0.71 0.83 0.91 0.97 1.05 1.14 1.21 1.24 1.27 1.30 1.32 1.34 1.38 1.41 1.46 1.54 1.62 1.68 1.69 1.75 1.93 1.84 1.84 1.70 1.67 1.66 1.61 1.56 1.50 1.45 1.50 1.39 1.50 1.60 1.62 1.75
0.45 0.46 0.49 0.48 0.47 0.48 0.55 0.68 0.82 0.94 1.01 1.07 1.11 1.12 1.18 1.24 1.29 1.38 1.46 1.55 1.60 1.62 1.69 1.74 1.76 1.78 1.82 1.88 1.79 1.82 1.62 1.55 1.51 1.43 1.35 1.32 1.26 1.27 1.35 1.40 1.49 1.39 1.34
0.50 0.53 0.56 0.57 0.55 0.55 0.57 0.67 0.83 0.94 1.03 1.11 1.17 1.18 1.25 1.35 1.43 1.55 1.64 1.67 1.74 1.73 1.70 1.68 1.65 1.63 1.64 1.68 1.63 1.63 1.48 1.42 1.35 1.27 1.21 1.21 1.18 1.34 1.52 1.51 1.51 1.31 1.18
0.53 0.56 0.58 0.57 0.60 0.65 0.67 0.76 0.93 1.03 1.12 1.22 1.32 1.33 1.35 1.41 1.47 1.52 1.53 1.53 1.53 1.50 1.44 1.41 1.37 1.32 1.29 1.38 1.40 1.43 1.39 1.36 1.23 1.17 1.15 1.27 1.26 1.45 1.61 1.51 1.49 1.41 1.17
0.63 0.65 0.66 0.70 0.78 0.84 0.88 0.99 1.12 1.27 1.33 1.34 1.41 1.40 1.36 1.37 1.35 1.33 1.28 1.23 1.21 1.18 1.15 1.12 1.09 1.05 1.04 1.11 1.17 1.27 1.33 1.40 1.33 1.20 1.11 1.09 1.32 1.48 1.61 1.57 1.45 1.43 1.41
0.60 0.67 0.75 0.80 0.84 0.95 1.05 1.15 1.30 1.37 1.31 1.25 1.25 1.22 1.15 1.12 1.07 1.04 1.08 1.05 1.03 1.08 1.08 1.04 1.02 0.97 0.94 0.99 1.05 1.16 1.30 1.38 1.38 1.27 1.10 1.08 1.32 1.40 1.46 1.47 1.50 1.60 1.61
0.50 0.57 0.66 0.74 0.77 0.86 0.91 1.00 1.05 1.02 0.99 0.98 1.01 1.02 0.98 0.96 0.97 0.95 0.98 1.03 1.02 1.03 1.03 1.01 1.04 1.02 0.96 1.01 1.12 1.18 1.31 1.40 1.36 1.27 1.28 1.33 1.39 1.38 1.33 1.38 1.50 1.52 1.47
0.47 0.50 0.54 0.60 0.67 0.74 0.77 0.80 0.80 0.78 0.81 0.87 0.92 0.95 0.96 0.94 0.95 0.98 0.96 1.00 1.04 1.05 1.02 0.99 1.01 1.00 0.97 0.98 1.07 1.21 1.29 1.38 1.42 1.40 1.37 1.35 1.35 1.39 1.37 1.34 1.35 1.35 1.39
0.46 0.48 0.57 0.64 0.72 0.74 0.77 0.79 0.80 0.80 0.84 0.88 0.94 0.99 1.01 0.98 0.97 0.99 1.02 1.04 1.06 1.12 1.23 1.19 1.12 1.15 1.13 1.07 1.25 1.39 1.40 1.43 1.49 1.55 1.45 1.33 1.28 1.33 1.32 1.27 1.24 1.29 1.38
0.47 0.48 0.53 0.61 0.69 0.71 0.73 0.78 0.83 0.86 0.90 0.92 0.94 0.97 1.01 1.02 1.00 0.96 1.02 1.09 1.09 1.12 1.14 1.14 1.17 1.14 1.17 1.22 1.32 1.39 1.42 1.50 1.62 1.73 1.53 1.28 1.18 1.17 1.16 1.17 1.20 1.23 1.30